{"data":{"norad_id":53477,"intl_designator":"2022-099N","name":"STARLINK-4412","alt_names":[],"object_type":"PAYLOAD","status":"ACTIVE","operator":null,"country":"US","launch_date":"2022-08-12","launch_site_code":"AFWTR","launch_vehicle":null,"mission":null,"orbit_class":"UNKNOWN","rcs_meters":null,"size_class":null,"mass_kg":null,"dimensions":null,"purposes":["comms"],"wikipedia_slug":null,"has_3d_model":false,"image_url":null,"decayed_at":null,"tle_current":{"epoch":"2026-09-06T05:10:22.217088Z","epoch_age_seconds":1312706,"freshness":"OLD","line1":"1 53477U 22099N   26249.21553492  .07882003  26721-5  18923-3 0  9999","line2":"2 53477  97.5818  21.6455 0013050 313.4960  46.5256 16.45153952224708","mean_motion":16.45153952,"eccentricity":0.001305,"inclination_deg":97.5818,"raan_deg":21.6455,"arg_perigee_deg":313.496,"mean_anomaly_deg":46.5256,"bstar":0.00018923,"rev_number":22470,"period_min":87.529802195679,"perigee_km":143.60609205942,"apogee_km":160.65008393909,"semimajor_km":6530.2650879993,"source":"CELESTRAK","updated_at":"2026-09-06T09:00:34.358215Z"}}}